Regional Weather Roundup
Issued by NWS Little Rock, AR

Current Version | Previous Version | Text Only | Print | Product List | Glossary On
Versions: 1 2 3 4 5 6 7 8 9 10 11 12 13 14 15 16 17 18 19 20 21 22 23 24 25 26 27 28 29 30 31 32 33 34 35 36 37 38 39 40 41 42 43 44 45 46 47 48 49 50
000 ASUS44 KLZK 191910 RWRLZK WEATHER ROUNDUP FOR ARKANSAS NATIONAL WEATHER SERVICE LITTLE ROCK AR 200 PM CDT MON APR 19 2021 NOTE: "FAIR" INDICATES FEW OR NO CLOUDS BELOW 12,000 FEET WITH NO SIGNIFICANT WEATHER AND/OR OBSTRUCTIONS TO VISIBILITY. ARZ001-003-010-029-192000- NORTHWEST ARKANSAS CITY SKY/WX TMP DP RH WIND PRES REMARKS FAYETTEVILLE SUNNY 67 36 31 NW9G22 30.00F FORT SMITH SUNNY 70 39 32 W7 30.00F HARRISON SUNNY 67 31 26 W6 29.98F BENTONVILLE SUNNY 66 38 35 SW8G20 30.01F ROGERS SUNNY 66 36 32 SW16 30.00F SILOAM SPGS SUNNY 66 37 34 VRB5G18 30.00F HIGHFILL SUNNY 67 36 31 W9G18 29.99F SPRINGDALE SUNNY 66 37 34 W6G18 30.01F $$ ARZ004-005-016-192000- NORTH CENTRAL ARKANSAS CITY SKY/WX TMP DP RH WIND PRES REMARKS BATESVILLE SUNNY 69 41 36 SW9 30.00F FLIPPIN SUNNY 68 35 29 W12 29.98F MTN HOME SUNNY 68 33 27 N9 29.97F $$ ARZ040-041-192000- WEST CENTRAL ARKANSAS CITY SKY/WX TMP DP RH WIND PRES REMARKS MENA SUNNY 68 36 30 CALM 30.02F $$ ARZ009-017-025-026-028-192000- NORTHEAST ARKANSAS CITY SKY/WX TMP DP RH WIND PRES REMARKS JONESBORO SUNNY 66 40 38 SW6 30.00F NEWPORT SUNNY 66 40 38 CALM 30.01F WALNUT RIDGE SUNNY 67 41 38 VRB7 29.99F BLYTHEVILLE SUNNY 67 35 30 W8 30.00F $$ ARZ032-043-044-192000- LITTLE ROCK METRO AREA CITY SKY/WX TMP DP RH WIND PRES REMARKS LITTLE ROCK MOSUNNY 69 37 30 CALM 30.02F N LTL ROCK NWS N/A 66 38 35 SE5 30.05F NLR AIRPORT FAIR 64 34 32 SW8G16 30.01F BENTON CLEAR 70 32 24 CALM 30.01F JACKSONVILLE SUNNY 68 37 32 VRB5 30.01F CONWAY CLEAR 70 37 30 W12 30.01F $$ ARZ022-023-033-042-192000- REMAINDER OF CENTRAL ARKANSAS CITY SKY/WX TMP DP RH WIND PRES REMARKS SEARCY SUNNY 68 36 30 W9 30.02F HOT SPRINGS SUNNY 69 36 29 VRB5 30.02F RUSSELLVILLE SUNNY 67 41 38 S8 30.00F CLINTON FAIR 68 39 34 VRB6G14 30.00F $$ ARZ036-192000- EAST ARKANSAS CITY SKY/WX TMP DP RH WIND PRES REMARKS WEST MEMPHIS SUNNY 68 36 30 VRB6 30.00F $$ ARZ050-053-066-070-073-192000- SOUTHWEST ARKANSAS CITY SKY/WX TMP DP RH WIND PRES REMARKS ARKADELPHIA FAIR 69 40 34 VRB6 30.04F TEXARKANA MOSUNNY 70 36 28 E5 30.03F EL DORADO MOSUNNY 70 36 28 CALM 30.04F DE QUEEN MOSUNNY 69 39 33 VRB3 30.01F $$ ARZ056-057-069-192000- SOUTHEAST ARKANSAS CITY SKY/WX TMP DP RH WIND PRES REMARKS PINE BLUFF SUNNY 69 32 25 CALM 30.03F STUTTGART SUNNY 68 37 32 W13 30.04F MONTICELLO MOSUNNY 70 38 31 N8 30.03F $$

USA.gov is the U.S. government's official web portal to all federal, state and local government web resources and services.